User: anonymous   Login
Location: Unspecified
(0.0000°N, 0.0000°E)
Time: 10:34:48
(UTC+00:00)
Language:

DSP F18 - Orbit

View from above orbital plane
View from above orbital plane
View from above satellite
View from above satellite

Ground track
Ground track

The orbit data is extracted from the following two-line orbital elements,

1 24737U 97008A   18137.39953541 0.00000000  00000-0  00000-0 0    09
2 24737  13.1028  26.5610 0003733 157.5127 202.5441  1.00270000    02
Epoch (UTC): 17 May 2018 09:35:19
Eccentricity: 0.0003733
inclination: 13.1028°
perigee height: 35771 km
apogee height: 35802 km
right ascension of ascending node: 26.5610°
argument of perigee: 157.5127°
revolutions per day: 1.00270000
mean anomaly at epoch: 202.5441°
orbit number at epoch: 0

The dashed part of the orbit path shows where the satellite is in the earth's shadow,  

DLR